FW0729 Weather Reports


Display with metric or nautical units.
time (UTC)temp
F
wind
direction
speed
MPH
gust
MPH
rain 1hr
in
rain 24hr
in
rain mn
in
humidity
%
barometer
mb
20260508213059 46 326 3.0 13.0 0.00 0.13 0.00 84 1001.9
20260508211600 48 338 4.0 14.0 0.00 0.13 0.00 80 1001.9
20260508210057 49 316 6.0 11.0 0.00 0.13 0.00 80 1001.7
20260508204602 49 357 5.0 13.0 0.00 0.45 0.00 80 1001.5
20260508203053 49 329 7.0 15.0 0.00 0.45 0.00 80 1001.4
20260508201552 49 16 6.0 18.0 0.00 0.45 0.00 82 1001.1
20260508200046 50 22 4.0 13.0 0.00 0.45 0.00 81 1000.8
20260508194611 50 346 7.0 16.0 0.00 0.61 0.00 81 1000.7
20260508193044 50 337 6.0 12.0 0.00 0.61 0.00 81 1000.7
20260508191540 49 338 5.0 15.0 0.00 0.61 0.00 83 1000.6
20260508190039 49 330 6.0 20.0 0.00 0.61 0.00 83 1000.4
20260508184539 50 31 7.0 16.0 0.00 0.65 0.00 81 1000.3
20260508183037 51 341 6.0 16.0 0.00 0.65 0.00 81 1000.5
20260508181545 51 320 5.0 17.0 0.00 0.65 0.00 80 1000.7
20260508180026 51 346 7.0 14.0 0.00 0.65 0.00 82 1001.0
20260508174521 51 339 4.0 13.0 0.00 0.65 0.00 83 1000.9
20260508173031 50 334 7.0 16.0 0.00 0.65 0.00 83 1000.8
20260508171523 48 286 7.0 16.0 0.00 0.65 0.00 85 1001.0
20260508170013 48 298 7.0 13.0 0.00 0.65 0.00 87 1001.2
20260508164516 47 323 5.0 10.0 0.00 0.65 0.00 87 1001.1
20260508163019 47 3 4.0 14.0 0.00 0.65 0.00 88 1001.1
20260508161521 47 352 3.0 12.0 0.00 0.65 0.00 88 1001.1
20260508160013 48 31 4.0 12.0 0.00 0.65 0.00 87 1001.2
20260508154509 47 345 5.0 13.0 0.00 0.65 0.00 86 1001.2
20260508153008 48 355 7.0 12.0 0.00 0.65 0.00 87 1000.9
20260508151506 48 333 4.0 14.0 0.00 0.65 0.00 87 1001.1
20260508150007 48 298 6.0 14.0 0.00 0.65 0.00 88 1001.0
20260508144600 47 317 5.0 12.0 0.00 0.65 0.00 89 1001.3
20260508143101 47 333 6.0 13.0 0.00 0.65 0.00 89 1001.4
20260508141602 46 318 5.0 14.0 0.00 0.65 0.00 90 1001.5
20260508140057 46 348 5.0 12.0 0.00 0.65 0.00 89 1001.7
20260508134559 46 326 5.0 11.0 0.00 0.65 0.00 89 1001.8
20260508133104 46 352 4.0 12.0 0.00 0.65 0.00 90 1002.2
20260508131553 46 335 5.0 13.0 0.00 0.65 0.00 90 1001.7
20260508130050 46 345 6.0 11.0 0.00 0.65 0.00 91 1001.6
20260508124548 47 304 3.0 11.0 0.00 0.65 0.00 93 1001.6
20260508123054 46 331 5.0 10.0 0.00 0.65 0.00 94 1001.6
20260508121550 45 313 3.0 9.0 0.00 0.65 0.00 95 1001.8
20260508120040 44 322 4.0 8.0 0.00 0.65 0.00 95 1001.6
20260508114538 43 336 4.0 9.0 0.00 0.65 0.00 95 1001.9
20260508113036 43 326 2.0 8.0 0.00 0.65 0.00 95 1001.6
20260508111535 43 316 2.0 6.0 0.00 0.65 0.00 95 1001.6
20260508110035 42 322 4.0 8.0 0.00 0.65 0.00 95 1001.7
20260508104530 42 324 2.0 7.0 0.00 0.65 0.00 95 1002.2
20260508103029 41 283 2.0 8.0 0.00 0.65 0.00 95 1002.0
20260508101528 41 333 4.0 10.0 0.00 0.65 0.00 95 1002.0
20260508100026 41 323 3.0 8.0 0.00 0.65 0.00 95 1001.8
20260508094523 41 33 3.0 7.0 0.00 0.65 0.00 95 1001.7
20260508093024 41 333 2.0 7.0 0.00 0.65 0.00 95 1001.8
20260508091526 41 330 3.0 7.0 0.00 0.65 0.00 95 1001.8
20260508090022 41 16 2.0 9.0 0.00 0.65 0.00 95 1001.5
20260508084516 41 319 2.0 9.0 0.00 0.65 0.00 95 1001.7
20260508083015 41 358 1.0 7.0 0.00 0.65 0.00 95 1001.3
20260508081516 42 333 2.0 9.0 0.00 0.65 0.00 95 1001.6
20260508080014 42 5 3.0 9.0 0.00 0.65 0.00 95 1001.1
20260508074512 42 318 3.0 8.0 0.00 0.65 0.00 95 1001.1
20260508073011 42 322 3.0 7.0 0.00 0.65 0.00 95 1001.2
20260508071517 43 8 2.0 8.0 0.00 0.65 0.00 95 1001.2
20260508070009 43 338 1.0 9.0 0.00 0.65 0.00 95 1001.3
20260508064511 44 6 2.0 9.0 0.00 0.65 0.00 95 1001.1
20260508063007 44 353 3.0 9.0 0.00 0.65 0.00 95 1001.3
20260508061510 44 10 1.0 6.0 0.00 0.65 0.00 95 1001.1
20260508060005 41 251 0.0 0.0 0.00 0.65 0.00 95 1000.9
20260508054504 40 251 0.0 0.0 0.00 0.65 0.00 95 1001.0
20260508053002 40 251 0.0 0.0 0.00 0.65 0.00 95 1001.0
20260508051502 41 251 1.0 2.0 0.00 0.65 0.00 95 1000.9
20260508044607 42 251 0.0 0.0 0.00 0.65 0.00 95 1001.2
20260508043108 43 251 0.0 0.0 0.00 0.65 0.00 95 1001.2
20260508041556 43 251 0.0 0.0 0.00 0.65 0.00 95 1001.3
20260508040059 43 251 0.0 0.0 0.00 0.65 0.00 95 1001.5
20260508034555 43 251 0.0 2.0 0.00 0.65 0.00 95 1001.5
20260508033049 43 251 0.0 2.0 0.00 0.65 0.00 95 1001.7
20260508031548 43 243 0.0 2.0 0.00 0.65 0.00 95 1001.6
20260508030056 43 246 0.0 3.0 0.00 0.65 0.00 95 1001.6
20260508024547 43 249 0.0 3.0 0.00 0.65 0.65 95 1001.5
20260508023045 43 249 1.0 4.0 0.00 0.65 0.65 95 1001.3
20260508021544 43 245 1.0 6.0 0.00 0.65 0.65 95 1001.4
20260508020047 43 241 1.0 5.0 0.01 0.65 0.65 95 1001.6
20260508014546 43 230 3.0 9.0 0.01 0.65 0.65 95 1001.6
20260508013041 42 220 2.0 6.0 0.01 0.65 0.65 95 1001.5
20260508011543 41 190 2.0 8.0 0.01 0.65 0.65 95 1001.7
20260508010139 41 178 2.0 6.0 0.00 0.65 0.65 94 1002.0
20260508004535 43 179 3.0 8.0 0.00 0.65 0.65 95 1002.3
20260508003035 43 176 4.0 11.0 0.00 0.65 0.65 95 1002.2
20260508001535 44 180 4.0 9.0 0.00 0.65 0.65 95 1002.4
20260508000032 43 207 1.0 6.0 0.00 0.65 0.65 95 1002.9
20260507234531 42 202 3.0 8.0 0.01 0.65 0.65 94 1002.4
20260507233033 44 193 3.0 8.0 0.01 0.65 0.65 95 1002.8
20260507231538 44 197 2.0 9.0 0.01 0.65 0.65 95 1002.9
20260507230029 44 185 3.0 10.0 0.01 0.65 0.65 95 1002.8
20260507224528 44 180 4.0 9.0 0.01 0.64 0.64 95 1002.9
20260507223028 44 179 2.0 10.0 0.02 0.64 0.64 95 1002.9
20260507221530 44 191 4.0 10.0 0.06 0.64 0.64 95 1003.3
20260507220026 43 189 2.0 9.0 0.12 0.64 0.64 94 1002.9
20260507214525 42 131 10.0 13.0 0.16 0.63 0.63 94 1002.6